This is the latest recevied weather packets stored in our database for station/object OK1UOJ. If no packets are shown the sender has not sent any weather packets the latest 10 day(s).
| Time | Temp. | Humidity | Pressure | Rain* | Wind** | Luminosity | Snow |
|---|---|---|---|---|---|---|---|
| 1777390994 | 15° C | 38% | 1022.4 hPa | - | - | - | - |
| 1777390721 | 15.56° C | 37% | 1022.4 hPa | - | - | - | - |
| 1777390716 | 15.56° C | 37% | 1022.4 hPa | - | - | - | - |
| 1777390443 | 16.11° C | 37% | 1022.4 hPa | - | - | - | - |
| 1777390438 | 16.11° C | 37% | 1022.4 hPa | - | - | - | - |
| 1777390160 | 16.67° C | 38% | 1022.4 hPa | - | - | - | - |
| 1777389883 | 16.67° C | 36% | 1022.4 hPa | - | - | - | - |
| 1777389610 | 16.67° C | 37% | 1022.4 hPa | - | - | - | - |
| 1777389605 | 16.67° C | 37% | 1022.4 hPa | - | - | - | - |
| 1777389327 | 17.22° C | 38% | 1022.5 hPa | - | - | - | - |
| 1777389049 | 17.22° C | 36% | 1022.5 hPa | - | - | - | - |
| 1777388776 | 17.22° C | 36% | 1022.5 hPa | - | - | - | - |
| 1777388771 | 17.22° C | 36% | 1022.5 hPa | - | - | - | - |
| 1777387659 | 17.22° C | 37% | 1022.5 hPa | - | - | - | - |
| 1777387381 | 17.22° C | 37% | 1022.6 hPa | - | - | - | - |
| 1777386825 | 17.78° C | 36% | 1022.6 hPa | - | - | - | - |
| 1777386547 | 17.78° C | 37% | 1022.6 hPa | - | - | - | - |
| 1777386269 | 17.78° C | 37% | 1022.6 hPa | - | - | - | - |
| 1777385157 | 18.33° C | 39% | 1022.7 hPa | - | - | - | - |
| 1777384884 | 17.78° C | 38% | 1022.7 hPa | - | - | - | - |
| 1777384879 | 17.78° C | 38% | 1022.7 hPa | - | - | - | - |
| 1777384606 | 17.78° C | 40% | 1022.7 hPa | - | - | - | - |
| 1777384601 | 17.78° C | 40% | 1022.7 hPa | - | - | - | - |
| 1777384323 | 17.78° C | 37% | 1022.8 hPa | - | - | - | - |
| 1777384073 | 17.78° C | 37% | 1022.8 hPa | - | - | - | - |
* Rain since midnight (hover to see other rain measurements)
** Current wind speed in m/s (hover to see current wind gust speed)